Weather History for Muskogee, OK

Change the Weather History Date:

Tuesday, January 1, 2013

  Actual Average Record
Temperature  
Mean Temperature 32 °F -  
Max Temperature 37 °F 48 °F 77 °F (2006)
Min Temperature 27 °F 28 °F 12 °F (2001)
Degree Days  
Heating Degree Days 32    
Moisture  
Dew Point 32 °F    
Average Humidity 93    
Maximum Humidity 100    
Minimum Humidity 85    
Precipitation  
Precipitation 0.00 in - - ()
Sea Level Pressure  
Sea Level Pressure 30.20 in    
Wind  
Wind Speed 7 mph (NNW)    
Max Wind Speed 14 mph    
Max Gust Speed -    
Visibility 6 miles    
Events Fog , Snow    
Averages and records for this station are not official NWS values.
T = Trace of Precipitation, MM = Missing Value Source: NWS Daily Summary

Daily Weather History Graph

Daily Weather History Graph

Search for Another Location

Airport:

Trip Planner

Search our weather history database for the weather conditions in past years. The results will help you decide how hot, cold, wet, or windy it might be!

Date:

Astronomy

Jan. 01, 2013 Rise Set
Actual Time 7:31 AM CST 5:19 PM CST
Civil Twilight 7:02 AM CST 5:47 PM CST
Nautical Twilight 6:31 AM CST 6:19 PM CST
Astronomical Twilight 6:00 AM CST 6:50 PM CST
Moon 9:41 PM CST (1/1) 9:52 AM CST (1/1)
Length of Visible Light 10h 44m
Length of Day
9h 48m
Waning Gibbous, 83% of the Moon is Illuminated
Jan 1
Waning Gibbous
Jan 4
Last Quarter
Jan 11
New
Jan 18
First Quarter
Jan 26
Full

Hourly Weather History & Observations

Time (CST) Temp. Windchill Dew Point Humidity Pressure Visibility Wind Dir Wind Speed Gust Speed Precip Events Conditions
12:53 AM 37.9 °F - 37.9 °F 100% 30.09 in 0.2 mi Calm Calm - N/A Fog Fog
1:09 AM 37.4 °F - 37.4 °F 100% 30.08 in 0.5 mi Calm Calm - N/A Fog Fog
1:19 AM 37.4 °F - 37.4 °F 100% 30.07 in 0.2 mi Calm Calm - N/A Fog Fog
1:32 AM 37.4 °F 33.8 °F 37.4 °F 100% 30.07 in 0.5 mi NNE 4.6 mph - N/A Fog Fog
1:53 AM 37.0 °F 31.0 °F 37.0 °F 100% 30.07 in 1.0 mi North 8.1 mph - N/A   Mist
2:02 AM 37.4 °F 32.1 °F 37.4 °F 100% 30.07 in 2.0 mi North 6.9 mph - N/A   Overcast
2:10 AM 37.4 °F 32.1 °F 37.4 °F 100% 30.07 in 5.0 mi North 6.9 mph - N/A   Overcast
2:53 AM 37.0 °F 33.3 °F 37.0 °F 100% 30.10 in 7.0 mi North 4.6 mph - N/A   Overcast
3:11 AM 37.4 °F 32.1 °F 37.4 °F 100% 30.10 in 8.0 mi North 6.9 mph - N/A   Overcast
3:53 AM 37.0 °F 31.6 °F 37.0 °F 100% 30.11 in 7.0 mi NNW 6.9 mph - N/A   Overcast
4:22 AM 37.4 °F 32.8 °F 37.4 °F 100% 30.11 in 8.0 mi NW 5.8 mph - N/A   Overcast
4:53 AM 37.0 °F 30.4 °F 37.0 °F 100% 30.13 in 7.0 mi NW 9.2 mph - N/A   Overcast
5:53 AM 37.0 °F 32.4 °F 36.0 °F 96% 30.14 in 8.0 mi NNW 5.8 mph - N/A   Overcast
6:01 AM 37.4 °F 32.1 °F 35.6 °F 93% 30.14 in 9.0 mi NNW 6.9 mph - N/A   Overcast
6:53 AM 36.0 °F 27.5 °F 36.0 °F 100% 30.15 in 7.0 mi North 12.7 mph - N/A   Overcast
7:02 AM 35.6 °F 28.0 °F 35.6 °F 100% 30.14 in 6.0 mi North 10.4 mph - N/A   Overcast
7:53 AM 36.0 °F 27.1 °F 35.1 °F 97% 30.17 in 9.0 mi North 13.8 mph - N/A   Overcast
8:53 AM 35.1 °F 26.4 °F 34.0 °F 96% 30.19 in 6.0 mi North 12.7 mph - N/A   Overcast
9:53 AM 33.1 °F 24.4 °F 32.0 °F 96% 30.23 in 3.0 mi NNW 11.5 mph - N/A   Overcast
10:53 AM 33.1 °F 24.4 °F 30.9 °F 92% 30.26 in 3.0 mi NNW 11.5 mph - N/A   Overcast
11:36 AM 33.8 °F 24.8 °F 30.2 °F 87% 30.24 in 4.0 mi North 12.7 mph - N/A   Overcast
12:53 PM 33.1 °F 23.9 °F 30.0 °F 89% 30.24 in 6.0 mi NNW 12.7 mph - N/A   Overcast
1:34 PM 32.0 °F 22.5 °F 30.2 °F 93% 30.23 in 2.5 mi NNW 12.7 mph - 0.00 in Snow Light Snow
1:43 PM 33.8 °F 25.8 °F 30.2 °F 87% 30.23 in 4.0 mi NNW 10.4 mph - 0.00 in   Overcast
1:50 PM 33.8 °F 25.3 °F 30.2 °F 87% 30.23 in 6.0 mi NNW 11.5 mph - 0.00 in   Overcast
1:53 PM 33.1 °F 23.4 °F 30.0 °F 89% 30.25 in 6.0 mi North 13.8 mph - 0.00 in   Overcast
2:53 PM 32.0 °F 22.1 °F 28.0 °F 85% 30.26 in 7.0 mi NNW 13.8 mph - N/A   Overcast
3:53 PM 30.9 °F 21.7 °F 27.0 °F 85% 30.26 in 9.0 mi North 11.5 mph - N/A   Overcast
4:37 PM 30.2 °F 20.8 °F 26.6 °F 86% 30.26 in 9.0 mi North 11.5 mph - N/A   Overcast
4:53 PM 30.9 °F 22.8 °F 27.0 °F 85% 30.27 in 9.0 mi NNW 9.2 mph - N/A   Overcast
5:53 PM 30.9 °F 23.5 °F 28.0 °F 89% 30.28 in 8.0 mi NNW 8.1 mph - N/A   Overcast
6:53 PM 30.9 °F 22.2 °F 28.0 °F 89% 30.30 in 7.0 mi NW 10.4 mph - N/A   Overcast
7:53 PM 30.0 °F 21.1 °F 27.0 °F 88% 30.30 in 7.0 mi NNW 10.4 mph - N/A   Overcast
8:13 PM 30.2 °F 21.9 °F 26.6 °F 86% 30.28 in 7.0 mi NNW 9.2 mph - N/A   Overcast
8:43 PM 28.4 °F 18.0 °F 26.6 °F 93% 30.29 in 8.0 mi NNW 12.7 mph - N/A   Overcast
8:53 PM 28.9 °F 21.1 °F 26.1 °F 89% 30.30 in 8.0 mi NNW 8.1 mph - N/A   Overcast
9:05 PM 28.4 °F 19.1 °F 26.6 °F 93% 30.28 in 8.0 mi NNW 10.4 mph - N/A   Overcast
9:53 PM 28.9 °F 20.4 °F 25.0 °F 85% 30.31 in 8.0 mi NNW 9.2 mph - N/A   Overcast
10:53 PM 28.0 °F 18.6 °F 25.0 °F 88% 30.31 in 8.0 mi NNW 10.4 mph - N/A   Overcast
11:53 PM 27.0 °F 17.3 °F 24.1 °F 89% 30.31 in 8.0 mi NW 10.4 mph - N/A   Overcast